| time (UTC) | temp C | wind direction | speed KPH | gust KPH | rain 1hr cm | rain 24hr cm | rain mn cm | humidity % | barometer mb |
| 20260507094525 | 2 | 255 | 0.0 | 0.0 | 0.03 | 1.07 | 0.03 | 95 | 1013.9 |
| 20260507093043 | 2 | 255 | 0.0 | 0.0 | 0.03 | 1.07 | 0.03 | 95 | 1013.8 |
| 20260507091506 | 2 | 255 | 0.0 | 0.0 | 0.00 | 1.04 | 0.00 | 95 | 1014.0 |
| 20260507090106 | 2 | 255 | 0.0 | 0.0 | 0.00 | 1.19 | 0.00 | 95 | 1013.7 |
| 20260507090006 | 2 | 255 | 0.0 | 0.0 | 0.00 | 1.19 | 0.00 | 95 | 1013.6 |
| 20260507084558 | 2 | 255 | 0.0 | 0.0 | 0.00 | 1.19 | 0.00 | 95 | 1013.6 |
| 20260507083058 | 2 | 255 | 0.0 | 0.0 | 0.00 | 1.19 | 0.00 | 95 | 1013.3 |
| 20260507081556 | 2 | 255 | 0.0 | 0.0 | 0.00 | 1.19 | 0.00 | 95 | 1014.0 |
| 20260507080038 | 2 | 255 | 0.0 | 0.0 | 0.00 | 1.42 | 0.00 | 94 | 1014.0 |
| 20260507074537 | 2 | 255 | 0.0 | 0.0 | 0.00 | 1.42 | 0.00 | 94 | 1013.7 |
| 20260507073049 | 2 | 255 | 0.0 | 0.0 | 0.00 | 1.42 | 0.00 | 95 | 1013.6 |
| 20260507071536 | 3 | 255 | 0.0 | 0.0 | 0.00 | 1.42 | 0.00 | 94 | 1014.0 |
| 20260507070028 | 3 | 255 | 0.0 | 0.0 | 0.00 | 1.75 | 0.00 | 94 | 1014.1 |
| 20260507064513 | 3 | 255 | 0.0 | 0.0 | 0.00 | 1.75 | 0.00 | 94 | 1014.3 |
| 20260507063102 | 3 | 255 | 0.0 | 0.0 | 0.00 | 1.75 | 0.00 | 94 | 1014.1 |
| 20260507061550 | 3 | 255 | 0.0 | 0.0 | 0.00 | 1.75 | 0.00 | 94 | 1014.1 |
| 20260507060005 | 3 | 255 | 0.0 | 0.0 | 0.00 | 2.13 | 0.00 | 94 | 1013.9 |
| 20260507054501 | 4 | 255 | 0.0 | 0.0 | 0.00 | 2.13 | 0.00 | 94 | 1014.0 |
| 20260507053050 | 4 | 255 | 0.0 | 0.0 | 0.00 | 2.13 | 0.00 | 95 | 1014.3 |
| 20260507051542 | 5 | 255 | 0.0 | 0.0 | 0.00 | 2.13 | 0.00 | 95 | 1014.4 |
| 20260507050056 | 5 | 255 | 0.0 | 0.0 | 0.00 | 2.39 | 0.00 | 95 | 1014.5 |
| 20260507044556 | 5 | 255 | 0.0 | 1.6 | 0.00 | 2.39 | 0.00 | 95 | 1014.8 |
| 20260507043052 | 5 | 255 | 0.0 | 0.0 | 0.00 | 2.39 | 0.00 | 95 | 1014.6 |
| 20260507041547 | 5 | 255 | 0.0 | 0.0 | 0.00 | 2.39 | 0.00 | 94 | 1014.4 |
| 20260507040107 | 5 | 255 | 0.0 | 0.0 | 0.00 | 2.64 | 0.00 | 95 | 1014.3 |
| 20260507034537 | 5 | 255 | 0.0 | 0.0 | 0.00 | 2.64 | 2.39 | 94 | 1014.1 |
| 20260507033024 | 5 | 255 | 0.0 | 0.0 | 0.00 | 2.64 | 2.39 | 94 | 1014.2 |
| 20260507031546 | 5 | 255 | 0.0 | 1.6 | 0.00 | 2.64 | 2.39 | 94 | 1014.2 |
| 20260507030030 | 5 | 255 | 0.0 | 1.6 | 0.00 | 2.67 | 2.39 | 95 | 1014.1 |
| 20260507024546 | 5 | 255 | 0.0 | 1.6 | 0.00 | 2.67 | 2.39 | 94 | 1014.1 |
| 20260507023046 | 5 | 265 | 0.0 | 0.0 | 0.00 | 2.67 | 2.39 | 94 | 1013.9 |
| 20260507021556 | 5 | 265 | 0.0 | 1.6 | 0.00 | 2.67 | 2.39 | 94 | 1014.1 |
| 20260507020055 | 5 | 265 | 0.0 | 0.0 | 0.00 | 2.77 | 2.39 | 94 | 1014.1 |
| 20260507014553 | 5 | 265 | 0.0 | 0.0 | 0.00 | 2.77 | 2.39 | 94 | 1014.0 |
| 20260507013015 | 5 | 265 | 0.0 | 0.0 | 0.00 | 2.77 | 2.39 | 94 | 1013.6 |
| 20260507011509 | 5 | 265 | 0.0 | 1.6 | 0.00 | 2.77 | 2.39 | 94 | 1013.8 |
| 20260507010014 | 5 | 265 | 0.0 | 3.2 | 0.00 | 2.90 | 2.39 | 94 | 1013.7 |
| 20260507004510 | 5 | 19 | 0.0 | 1.6 | 0.00 | 2.90 | 2.39 | 93 | 1013.5 |
| 20260507003036 | 5 | 24 | 0.0 | 0.0 | 0.00 | 2.90 | 2.39 | 93 | 1013.7 |
| 20260507001532 | 5 | 24 | 0.0 | 1.6 | 0.00 | 2.90 | 2.39 | 93 | 1013.5 |
| 20260507000020 | 5 | 24 | 0.0 | 3.2 | 0.05 | 3.07 | 2.39 | 92 | 1013.2 |
| 20260506234550 | 5 | 16 | 1.6 | 6.4 | 0.13 | 3.07 | 2.39 | 92 | 1013.2 |
| 20260506233112 | 6 | 344 | 3.2 | 14.5 | 0.23 | 3.07 | 2.39 | 91 | 1012.8 |
| 20260506233001 | 6 | 323 | 1.6 | 6.4 | 0.23 | 3.07 | 2.39 | 91 | 1012.9 |
| 20260506231524 | 6 | 335 | 1.6 | 6.4 | 0.28 | 3.07 | 2.39 | 91 | 1012.9 |
| 20260506230043 | 7 | 355 | 1.6 | 8.0 | 0.28 | 3.12 | 2.34 | 90 | 1012.7 |
| 20260506224556 | 8 | 355 | 3.2 | 11.3 | 0.23 | 3.05 | 2.26 | 89 | 1012.2 |
| 20260506223051 | 8 | 15 | 0.0 | 1.6 | 0.13 | 2.92 | 2.16 | 89 | 1011.6 |
| 20260506221557 | 8 | 15 | 0.0 | 1.6 | 0.05 | 2.84 | 2.11 | 88 | 1011.4 |
| 20260506220048 | 9 | 15 | 0.0 | 0.0 | 0.03 | 2.84 | 2.06 | 87 | 1011.3 |
| 20260506214520 | 9 | 15 | 0.0 | 4.8 | 0.00 | 2.84 | 2.03 | 85 | 1011.2 |
| 20260506213021 | 9 | 355 | 0.0 | 4.8 | 0.00 | 2.84 | 2.03 | 84 | 1011.0 |
| 20260506211528 | 9 | 188 | 0.0 | 3.2 | 0.00 | 2.84 | 2.03 | 85 | 1010.9 |
| 20260506210028 | 9 | 207 | 0.0 | 1.6 | 0.00 | 2.84 | 2.03 | 85 | 1011.0 |
| 20260506204540 | 9 | 207 | 0.0 | 3.2 | 0.00 | 2.84 | 2.03 | 85 | 1011.0 |
| 20260506203033 | 9 | 207 | 0.0 | 1.6 | 0.00 | 2.84 | 2.03 | 85 | 1011.1 |
| 20260506201550 | 9 | 220 | 0.0 | 1.6 | 0.00 | 2.84 | 2.03 | 85 | 1011.3 |
| 20260506200052 | 9 | 232 | 0.0 | 1.6 | 0.00 | 2.84 | 2.03 | 86 | 1011.2 |
| 20260506194548 | 9 | 254 | 0.0 | 3.2 | 0.00 | 2.84 | 2.03 | 88 | 1011.2 |
| 20260506193031 | 8 | 164 | 1.6 | 3.2 | 0.00 | 2.84 | 2.03 | 90 | 1011.0 |
| 20260506191527 | 8 | 181 | 0.0 | 1.6 | 0.00 | 2.84 | 2.03 | 91 | 1011.1 |
| 20260506190011 | 8 | 182 | 1.6 | 4.8 | 0.00 | 2.84 | 2.03 | 92 | 1011.2 |
| 20260506184509 | 7 | 117 | 0.0 | 3.2 | 0.00 | 2.84 | 2.03 | 93 | 1011.4 |
| 20260506183015 | 7 | 82 | 0.0 | 3.2 | 0.00 | 2.84 | 2.03 | 94 | 1011.4 |
| 20260506181537 | 7 | 10 | 0.0 | 6.4 | 0.00 | 2.84 | 2.03 | 94 | 1011.3 |
| 20260506180026 | 7 | 27 | 0.0 | 4.8 | 0.00 | 2.84 | 2.03 | 95 | 1011.5 |
| 20260506174527 | 7 | 36 | 0.0 | 6.4 | 0.00 | 2.84 | 2.03 | 94 | 1011.5 |
| 20260506173029 | 7 | 42 | 0.0 | 3.2 | 0.00 | 2.84 | 2.03 | 95 | 1011.4 |
| 20260506171524 | 7 | 355 | 1.6 | 6.4 | 0.00 | 2.84 | 2.03 | 95 | 1011.2 |
| 20260506170039 | 7 | 26 | 3.2 | 6.4 | 0.00 | 2.84 | 2.03 | 96 | 1010.9 |
| 20260506164612 | 6 | 27 | 4.8 | 9.7 | 0.00 | 2.84 | 2.03 | 96 | 1011.0 |
| 20260506163024 | 6 | 346 | 1.6 | 8.0 | 0.00 | 2.84 | 2.03 | 96 | 1010.9 |
| 20260506161505 | 6 | 76 | 1.6 | 6.4 | 0.00 | 2.84 | 2.03 | 96 | 1011.1 |
| 20260506160018 | 6 | 42 | 1.6 | 4.8 | 0.03 | 2.84 | 2.03 | 96 | 1011.0 |
| 20260506154537 | 6 | 57 | 3.2 | 8.0 | 0.03 | 2.84 | 2.03 | 96 | 1010.9 |
| 20260506153015 | 6 | 147 | 1.6 | 4.8 | 0.03 | 2.84 | 2.03 | 96 | 1011.1 |
| 20260506151515 | 6 | 61 | 0.0 | 4.8 | 0.03 | 2.84 | 2.03 | 96 | 1010.7 |
| 20260506150018 | 6 | 19 | 0.0 | 8.0 | 0.00 | 2.82 | 2.03 | 95 | 1010.7 |
| 20260506144508 | 6 | 43 | 1.6 | 6.4 | 0.00 | 2.82 | 2.01 | 96 | 1010.7 |
| 20260506143059 | 6 | 46 | 1.6 | 6.4 | 0.00 | 2.82 | 2.01 | 95 | 1010.6 |
| 20260506143001 | 6 | 53 | 3.2 | 6.4 | 0.00 | 2.82 | 2.01 | 96 | 1010.6 |
| 20260506141510 | 6 | 17 | 1.6 | 4.8 | 0.03 | 2.82 | 2.01 | 95 | 1010.3 |
| 20260506140021 | 6 | 59 | 0.0 | 6.4 | 0.08 | 2.82 | 2.01 | 96 | 1010.3 |
| 20260506134514 | 6 | 5 | 0.0 | 3.2 | 0.08 | 2.82 | 2.01 | 96 | 1010.2 |
| 20260506133007 | 6 | 114 | 1.6 | 8.0 | 0.10 | 2.82 | 2.01 | 96 | 1010.2 |
| 20260506131504 | 5 | 144 | 0.0 | 4.8 | 0.10 | 2.79 | 1.98 | 96 | 1010.0 |
| 20260506130003 | 5 | 144 | 0.0 | 6.4 | 0.10 | 2.74 | 1.93 | 95 | 1010.0 |
| 20260506124542 | 5 | 248 | 1.6 | 4.8 | 0.15 | 2.74 | 1.93 | 95 | 1009.8 |
| 20260506123036 | 5 | 189 | 1.6 | 4.8 | 0.15 | 2.72 | 1.91 | 95 | 1009.7 |
| 20260506121600 | 5 | 35 | 1.6 | 6.4 | 0.15 | 2.69 | 1.88 | 95 | 1009.6 |
| 20260506120106 | 6 | 294 | 0.0 | 4.8 | 0.13 | 2.64 | 1.83 | 95 | 1009.9 |
| 20260506114558 | 6 | 148 | 1.6 | 4.8 | 0.10 | 2.59 | 1.78 | 95 | 1009.7 |
| 20260506114502 | 6 | 146 | 1.6 | 4.8 | 0.10 | 2.59 | 1.78 | 95 | 1009.7 |
| 20260506113051 | 6 | 198 | 0.0 | 4.8 | 0.13 | 2.57 | 1.75 | 95 | 1009.9 |
| 20260506111516 | 6 | 173 | 0.0 | 9.7 | 0.13 | 2.54 | 1.73 | 95 | 1009.7 |
| 20260506110030 | 6 | 79 | 0.0 | 6.4 | 0.15 | 2.51 | 1.70 | 95 | 1009.5 |
| 20260506104557 | 6 | 119 | 1.6 | 6.4 | 0.20 | 2.49 | 1.68 | 95 | 1009.3 |
| 20260506103046 | 6 | 46 | 0.0 | 4.8 | 0.20 | 2.44 | 1.63 | 95 | 1009.5 |
| 20260506101503 | 6 | 15 | 0.0 | 8.0 | 0.23 | 2.41 | 1.60 | 95 | 1009.7 |
| 20260506100008 | 6 | 21 | 1.6 | 8.0 | 0.18 | 2.34 | 1.52 | 95 | 1009.8 |